Home > Weather > Surgut > Past weeks

Flag for Russia Weather for the Past 2 Weeks in Surgut, Russia

Now
3 °F

Passing clouds.


Feels Like: -12 °F
Forecast: -4 / 11 °F
Wind: 10 mph from North

Location: Surgut Airport

Current Time: Feb 9, 2016 at 5:22:24 AM

Latest Report: Feb 9, 2016 at 4:30 AM


Visibility: 4 mi

Pressure: 29.98 "Hg

Humidity: 85%

Dew point: 0 °F

Location of SurgutLocation

Historic Weather in Surgut — Graph

°F

Surgut Temperature Yesterday

Maximum temperature yesterday: 14 °F (at 1:30 PM)
Minimum temperature yesterday: 7 °F (at 3:30 AM)
Average temperature yesterday: 11 °F

High & Low Weather Summary for the Past Weeks

 TemperatureHumidityPressure
High27 °F (Feb 3, 1:30 PM)100% (Feb 2, 9:00 AM)30.92 "Hg (Feb 2, 9:00 AM)
Low-13 °F (Jan 27, 11:00 PM)60% (Jan 28, 12:30 PM)29.50 "Hg (Feb 6, 9:30 AM)
Average7 °F84%30.18 "Hg
* Reported Jan 25 3:00 AM — Feb 9 3:00 AM, Surgut, Weather by CustomWeather, © 2016

Note: Actual official high and low records may vary slightly from our data, if they occured in-between our weather recording intervals... More about our weather records

Advertising

Surgut Weather History for the Previous 24 Hours

 ConditionsComfort  
Time TempWeatherWind HumidityBarometerVisibility
3:00 AM
Tue, Feb 9
9 °FClear.8 mph85%29.98 "Hg4 mi
2:30 AM9 °FClear.6 mph85%29.95 "Hg4 mi
2:00 AM9 °FOvercast.3 mph85%29.95 "Hg4 mi
1:30 AM9 °FOvercast.3 mph85%29.95 "Hg4 mi
1:00 AM9 °FOvercast.3 mph85%29.95 "Hg4 mi
12:30 AM9 °FLight snow. Overcast.6 mph92%29.95 "Hg4 mi
12:00 AM9 °FLight snow. Low clouds.6 mph85%29.95 "Hg4 mi
11:30 PM
Mon, Feb 8
7 °FPassing clouds.6 mph85%29.95 "Hg4 mi
11:00 PM7 °FPassing clouds.6 mph85%29.92 "Hg4 mi
10:30 PM9 °FPassing clouds.6 mph85%29.92 "Hg4 mi
10:00 PM10 °FPassing clouds.6 mph85%29.92 "Hg4 mi
9:30 PM10 °FPassing clouds.6 mph92%29.89 "Hg4 mi
9:00 PM12 °FPassing clouds.8 mph92%29.89 "Hg4 mi
8:30 PM12 °FPassing clouds.8 mph85%29.89 "Hg4 mi
8:00 PM12 °FPassing clouds.3 mph85%29.86 "Hg4 mi
7:30 PM14 °FLight snow. Overcast.6 mph85%29.86 "Hg4 mi
7:00 PM14 °FLight snow. Overcast.6 mph85%29.86 "Hg4 mi
6:30 PM14 °FLight snow. Overcast.6 mph92%29.83 "Hg4 mi
6:00 PM14 °FLight snow. Overcast.6 mph92%29.83 "Hg4 mi
5:30 PM14 °FLight snow. Overcast.6 mph92%29.83 "Hg4 mi
5:00 PM14 °FLight snow. Overcast.10 mph92%29.83 "Hg4 mi
4:30 PM14 °FLight snow. Overcast.6 mph92%29.80 "Hg1 mi
4:00 PM14 °FLight snow. Scattered clouds.8 mph92%29.80 "Hg4 mi
3:30 PM14 °FLight snow. Clear.8 mph92%29.80 "Hg4 mi
3:00 PM14 °FLight snow. Ice fog.6 mph92%29.80 "Hg3 mi
2:30 PM14 °FLight snow. Ice fog.6 mph92%29.77 "Hg2 mi
2:00 PM14 °FLight snow. Ice fog.6 mph92%29.77 "Hg3 mi
1:30 PM14 °FLight snow. Ice fog.3 mph85%29.77 "Hg3 mi
1:00 PM12 °FLight snow. Ice fog.6 mph92%29.77 "Hg2 mi
12:30 PM12 °FLight snow. Ice fog.3 mph85%29.77 "Hg2 mi
12:00 PM12 °FLight snow. Ice fog.1 mph85%29.77 "Hg3 mi
11:30 AM10 °FLight snow. Ice fog.1 mph92%29.77 "Hg2 mi
11:00 AM10 °FLight snow. Ice fog.1 mph92%29.77 "Hg2 mi
10:30 AM10 °FLight snow. Ice fog.3 mph85%29.77 "Hg2 mi
10:00 AM9 °FLight snow. Ice fog.1 mph92%29.77 "Hg2 mi
9:30 AM9 °FLight snow. Ice fog.1 mph85%29.77 "Hg2 mi
9:00 AM7 °FLight snow. Ice fog.1 mph92%29.77 "Hg2 mi
8:30 AM7 °FPassing clouds.3 mph85%29.77 "Hg4 mi
8:00 AM7 °FPassing clouds.3 mph92%29.77 "Hg4 mi
7:30 AM9 °FPassing clouds.3 mph85%29.77 "Hg4 mi
7:00 AM9 °FPassing clouds.3 mph85%29.77 "Hg4 mi
6:30 AM9 °FPartly cloudy.6 mph85%29.77 "Hg4 mi
6:00 AM9 °FLow clouds.3 mph92%29.77 "Hg4 mi
5:30 AM9 °FLow clouds.1 mph92%29.77 "Hg4 mi
5:00 AM9 °FPassing clouds.3 mph92%29.77 "Hg4 mi
Weather by CustomWeather, © 2016

See weather overviewHow to use our weather pages